Location: Central Falls
(41.8900°N, 71.3929°W)
Time: 16:43:07
(UTC+00:00)

Vanguard 1 Rocket - Pass Details

Date: 04 December 2023
Orbit: 654 x 4218 km, 34.3° (Epoch: 24 February)

Event Time Altitude Azimuth Distance (km) Brightness Sun altitude
Rises 07:55:11 0° 214° (SSW) 8,453 - -44.1°
Exits shadow 07:58:43 - 210° (SSW) 7,895 11.9 -43.5°
Reaches altitude 10° 08:02:05 10° 206° (SSW) 7,353 11.7 -42.9°
Maximum altitude 08:22:28 36° 151° (SSE) 4,475 10.9 -39.1°
Drops below altitude 10° 08:35:49 10° 92° (E) 4,927 11.9 -36.6°
Sets 08:39:15 0° 84° (E) 5,511 12.4 -36.0°
